Location: Sungai Jaoh
(2.9167°N, 113.9167°E)
Time: 05:11:43
(UTC+00:00)

Cosmos 2237 Rocket - Pass Details

Date: 30 November 2020
Orbit: 833 x 851 km, 71.0° (Epoch: 25 January)

Event Time Altitude Azimuth Distance (km) Brightness Sun altitude
Exits shadow 20:23:17 14° 213° (SSW) 2,212 4.3 -26.6°
Drops below altitude 10° 20:24:17 10° 205° (SSW) 2,475 4.6 -26.3°
Sets 20:27:15 0° 190° (S) 3,412 5.5 -25.6°
